FW7205 Weather Reports


Display with metric or nautical units.
time (UTC)temp
F
wind
direction
speed
MPH
gust
MPH
rain 1hr
in
rain 24hr
in
rain mn
in
humidity
%
barometer
mb
20260506080104 75 0 0.0 4.0 0.00 0.00 0.00 91 1007.1
20260506073055 75 0 0.0 4.0 0.00 0.00 0.00 91 1007.3
20260506071604 75 234 1.0 4.0 0.00 0.00 0.00 90 1007.3
20260506070104 75 0 0.0 4.0 0.00 0.00 0.00 90 1007.3
20260506061554 75 0 0.0 4.0 0.00 0.00 0.00 89 1008.1
20260506050107 76 114 0.0 3.0 0.00 0.00 0.00 87 1007.7
20260506044558 76 158 0.0 6.0 0.00 0.00 0.00 87 1007.8
20260506043053 76 73 0.0 5.0 0.00 0.00 0.00 86 1007.9
20260506041552 76 0 0.0 3.0 0.00 0.00 0.00 86 1007.7
20260506040055 77 0 0.0 4.0 0.00 0.00 0.00 85 1007.4
20260506034610 77 116 1.0 4.0 0.00 0.00 0.00 85 1007.3
20260506033054 77 0 1.0 4.0 0.00 0.00 0.00 85 1007.2
20260506031556 77 0 0.0 3.0 0.00 0.00 0.00 84 1007.2
20260506030056 77 154 1.0 3.0 0.00 0.00 0.00 84 1006.8
20260506024612 77 217 0.0 3.0 0.00 0.00 0.00 83 1006.5
20260506023054 78 140 0.0 2.0 0.00 0.00 0.00 82 1006.4
20260506021553 78 94 0.0 3.0 0.00 0.00 0.00 82 1006.5
20260506020054 78 205 0.0 4.0 0.00 0.00 0.00 82 1006.3
20260506014553 79 236 0.0 4.0 0.00 0.00 0.00 81 1006.2
20260506013107 79 0 0.0 3.0 0.00 0.00 0.00 81 1005.9
20260506011606 79 0 0.0 2.0 0.00 0.00 0.00 80 1005.7
20260506010056 80 0 0.0 3.0 0.00 0.00 0.00 79 1005.2
20260506004555 80 277 0.0 4.0 0.00 0.00 0.00 78 1005.0
20260506003055 81 150 0.0 3.0 0.00 0.00 0.00 78 1005.0
20260506001554 81 154 0.0 3.0 0.00 0.00 0.00 78 1005.2
20260506000055 81 0 1.0 4.0 0.00 0.00 0.00 77 1005.2
20260505234557 82 0 1.0 5.0 0.00 0.00 0.00 77 1005.1
20260505233053 82 57 0.0 4.0 0.00 0.00 0.00 76 1004.9
20260505231552 82 0 0.0 4.0 0.00 0.00 0.00 76 1004.9
20260505230104 83 117 0.0 3.0 0.00 0.00 0.00 76 1005.0
20260505224553 83 0 1.0 6.0 0.00 0.00 0.00 75 1005.1
20260505223108 83 113 1.0 4.0 0.00 0.00 0.00 75 1004.9
20260505221557 83 0 1.0 6.0 0.00 0.00 0.00 76 1005.0
20260505220056 83 148 1.0 4.0 0.00 0.00 0.00 76 1005.2
20260505214553 84 255 1.0 4.0 0.00 0.00 0.00 74 1005.2
20260505213100 84 198 1.0 6.0 0.00 0.00 0.00 73 1005.5
20260505211555 84 212 0.0 4.0 0.00 0.00 0.00 75 1005.3
20260505210056 84 132 1.0 4.0 0.00 0.00 0.00 74 1005.7
20260505204601 85 0 1.0 4.0 0.00 0.00 0.00 72 1006.1
20260505203108 84 212 1.0 4.0 0.00 0.00 0.00 72 1006.1
20260505201600 84 168 1.0 4.0 0.00 0.00 0.00 74 1006.4
20260505194610 83 186 0.0 4.0 0.00 0.00 0.00 75 1006.7
20260505193056 83 137 1.0 7.0 0.00 0.00 0.00 75 1006.8
20260505191554 84 298 1.0 5.0 0.00 0.00 0.00 73 1007.0
20260505190054 82 0 1.0 4.0 0.00 0.00 0.00 76 1007.1
20260505184559 82 0 0.0 5.0 0.00 0.00 0.00 77 1007.2
20260505183101 82 128 2.0 4.0 0.00 0.00 0.00 76 1007.1
20260505181557 82 0 1.0 6.0 0.00 0.00 0.00 76 1007.2
20260505174600 81 182 1.0 6.0 0.00 0.00 0.00 77 1007.5
20260505173056 81 201 1.0 4.0 0.00 0.00 0.00 78 1007.6
20260505171553 79 61 0.0 5.0 0.00 0.00 0.00 80 1007.8
20260505170055 80 138 1.0 4.0 0.00 0.00 0.00 81 1007.7
20260505164600 78 135 1.0 5.0 0.00 0.00 0.00 84 1007.9
20260505163056 76 0 0.0 4.0 0.00 0.00 0.00 87 1008.1
20260505161551 75 219 1.0 4.0 0.00 0.00 0.00 88 1008.1
20260505153109 74 0 0.0 4.0 0.00 0.00 0.00 90 1008.1
20260505151557 73 75 0.0 2.0 0.00 0.00 0.00 91 1008.0
20260505140105 71 200 0.0 4.0 0.00 0.00 0.00 92 1007.8
20260505130110 70 249 0.0 3.0 0.00 0.00 0.00 91 1007.4
20260505124608 70 0 0.0 2.0 0.00 0.00 0.00 91 1007.2
20260505123117 70 0 0.0 3.0 0.00 0.00 0.00 91 1007.5
20260505121556 70 184 0.0 6.0 0.00 0.00 0.00 91 1007.1
20260505120055 70 218 0.0 4.0 0.00 0.00 0.00 91 1006.7
20260505114558 70 201 0.0 4.0 0.00 0.00 0.00 91 1007.0
20260505113059 70 0 1.0 4.0 0.00 0.00 0.00 91 1006.8
20260505111558 69 0 0.0 4.0 0.00 0.00 0.00 91 1006.7
20260505110105 69 0 0.0 2.0 0.00 0.00 0.00 91 1007.1
20260505101603 69 196 0.0 3.0 0.00 0.00 0.00 90 1006.9
20260505100057 69 0 0.0 2.0 0.00 0.00 0.00 90 1007.0
20260505094601 69 241 0.0 2.0 0.00 0.00 0.00 90 1007.1
20260505093055 69 0 0.0 3.0 0.00 0.00 0.00 90 1007.1
20260505091559 69 0 0.0 6.0 0.00 0.00 0.00 89 1007.1
20260505090059 69 0 0.0 2.0 0.00 0.00 0.00 89 1007.2
20260505084553 69 0 0.0 3.0 0.00 0.00 0.00 89 1007.5
20260505083057 69 0 0.0 3.0 0.00 0.00 0.00 88 1007.7
20260505081603 69 0 0.0 2.0 0.00 0.00 0.00 88 1007.9